This demonstration page uses our WeatherBlox Daily Observations layout. Learn more.

Left ArrowRight Arrow

Hourly Observations for January 31, 2018

Temp ( °F °C ) Dew Point ( °F °C ) Humidity (%) Winds ( mph kmh ) Pressure ( in mb ) Visibility ( mi km ) Precip ( " mm )
12:53 am 00:53 Clear 41 5 24 -4.4 51 51 W 9 15 29.72 1007 10 16 0.00 0.00
2:53 am 02:53 Clear 38 3.3 28 -2.2 68 68 N 17 28 29.80 1009 10 16 0.00 0.00
3:53 am 03:53 Clear 35 1.7 27 -2.8 72 72 N 8 13 29.87 1011 10 16 0.00 0.00
4:53 am 04:53 Clear 32 0 26 -3.3 79 79 N 9 15 29.89 1012 10 16 0.00 0.00
5:53 am 05:53 Clear 32 0 27 -2.8 82 82 NW 3 6 29.89 1012 10 16 0.00 0.00
6:53 am 06:53 Clear 32 0 27 -2.8 82 82 WNW 3 6 29.90 1013 10 16 0.00 0.00
7:53 am 07:53 Sunny 32 0 28 -2.2 85 85 N 7 11 29.91 1013 10 16 0.00 0.00
8:53 am 08:53 Sunny 34 1.1 29 -1.7 82 82 SW 3 6 29.91 1013 10 16 0.00 0.00
9:53 am 09:53 Sunny 36 2.2 30 -1.1 79 79 WSW 6 9 29.93 1014 10 16 0.00 0.00
10:53 am 10:53 Sunny 38 3.3 27 -2.8 65 65 N 6 9 29.93 1014 10 16 0.00 0.00
11:53 am 11:53 Sunny 38 3.3 27 -2.8 65 65 WNW 3 6 29.94 1014 10 16 0.00 0.00
12:53 pm 12:53 Sunny 39 3.9 27 -2.8 62 62 NW 10 17 29.93 1014 10 16 0.00 0.00
1:53 pm 13:53 Sunny 41 5 24 -4.4 51 51 WNW 12 19 29.91 1013 10 16 0.00 0.00
2:53 pm 14:53 Sunny 42 5.6 20 -6.7 41 41 NW 12 19 29.91 1013 10 16 0.00 0.00
3:53 pm 15:53 Sunny 42 5.6 21 -6.1 43 43 NW 13 20 29.94 1014 10 16 0.00 0.00
4:53 pm 16:53 Sunny 41 5 25 -3.9 53 53 NW 10 17 29.96 1015 10 16 0.00 0.00
5:53 pm 17:53 Clear 37 2.8 24 -4.4 59 59 NW 6 9 29.98 1015 10 16 0.00 0.00
6:53 pm 18:53 Clear 33 0.6 24 -4.4 70 70 WNW 6 9 30.01 1016 10 16 0.00 0.00
7:53 pm 19:53 Mostly Cloudy 35 1.7 26 -3.3 70 70 W 7 11 30.03 1017 10 16 0.00 0.00
8:53 pm 20:53 Cloudy 35 1.7 27 -2.8 72 72 WSW 7 11 30.03 1017 10 16 0.00 0.00
9:53 pm 21:53 Clear 32 0 26 -3.3 79 79 W 8 13 30.05 1018 10 16 0.00 0.00
10:53 pm 22:53 Mostly Clear 34 1.1 26 -3.3 73 73 NW 10 17 30.05 1018 10 16 0.00 0.00
11:53 pm 23:53 Mostly Cloudy 35 1.7 26 -3.3 70 70 NNW 16 26 30.08 1019 10 16 0.00 0.00

Powered by AerisWeather